This demonstration page uses our WeatherBlox Daily Observations layout. Learn more.

Left ArrowRight Arrow

Hourly Observations for June 25, 2020

Temp ( °F °C ) Dew Point ( °F °C ) Humidity (%) Winds ( mph kmh ) Pressure ( in mb ) Visibility ( mi km ) Precip ( " mm )
12:56 am 00:56 Clear 63 17.2 57 14.1 82 82 Calm 29.93 1013 10 16 0.00 0.00
1:56 am 01:56 Clear 60 15.6 57 13.8 89 89 Calm 29.91 1013 10 16 0.00 0.00
2:56 am 02:56 Clear 58 14.6 55 12.8 89 89 Calm 29.91 1013 10 16 0.00 0.00
3:56 am 03:56 Clear 58 14.5 55 12.5 88 88 Calm 29.92 1013 10 16 0.00 0.00
4:56 am 04:56 Mostly Clear 60 15.5 56 13.2 86 86 SE 5 7 29.93 1014 10 16 0.00 0.00
5:56 am 05:56 Mostly Cloudy 62 16.5 59 14.8 90 90 ESE 6 9 29.93 1014 10 16 0.00 0.00
6:56 am 06:56 Cloudy 66 18.9 61 16.3 85 85 ESE 6 9 29.93 1014 10 16 0.00 0.00
7:56 am 07:56 Sunny 67 19.7 62 16.5 82 82 SE 6 9 29.93 1014 10 16 0.00 0.00
8:56 am 08:56 Sunny 72 22.3 64 17.8 76 76 SE 8 13 29.93 1014 10 16 0.00 0.00
9:56 am 09:56 undefined N/A N/A N/A undefined N/A N/A N/A 0.00 0.00
10:56 am 10:56 Sunny 81 27.3 67 19.3 62 62 SSE 9 15 29.91 1013 10 16 0.00 0.00
11:56 am 11:56 Sunny 83 28.4 68 20.1 61 61 SSE 13 20 29.90 1013 10 16 0.00 0.00
12:54 pm 12:54 Sunny 86 30 68 20 55 55 ESE 13 20 29.88 1012 10 16 0.00 0.00
12:56 pm 12:56 Sunny 85 29.5 69 20.3 58 58 ESE 13 20 29.88 1012 10 16 0.00 0.00
1:56 pm 13:56 Sunny 87 30.7 69 20.3 54 54 SSE 8 13 29.87 1012 10 16 0.00 0.00
2:56 pm 14:56 Sunny 89 31.8 70 21 53 53 SSE 12 19 29.85 1011 10 16 0.00 0.00
3:03 pm 15:03 Sunny 90 32 68 20 49 49 SE 15 24 29.85 1011 10 16 0.00 0.00
3:09 pm 15:09 Sunny 90 32 68 20 49 49 S 13 20 29.85 1011 10 16 0.00 0.00
3:56 pm 15:56 Sunny 90 32.2 68 19.8 48 48 SSE 15 24 29.84 1011 10 16 0.00 0.00
4:56 pm 16:56 Sunny 90 32.4 70 20.9 51 51 SE 14 22 29.82 1010 10 16 0.00 0.00
5:03 pm 17:03 Sunny 90 32 70 21 52 52 SE 16 26 29.82 1010 10 16 0.00 0.00
5:56 pm 17:56 Sunny 91 32.5 70 21.3 52 52 SE 13 20 29.80 1009 10 16 0.00 0.00
6:56 pm 18:56 Sunny 89 31.9 71 21.4 54 54 SE 17 28 29.79 1009 10 16 0.00 0.00
7:56 pm 19:56 Sunny 87 30.7 70 21.2 57 57 ESE 12 19 29.79 1009 10 16 0.00 0.00
8:56 pm 20:56 Sunny 84 28.8 69 20.8 62 62 SE 10 17 29.78 1009 10 16 0.00 0.00
9:56 pm 21:56 Mostly Clear 80 26.7 70 21 71 71 ESE 7 11 29.82 1010 10 16 0.00 0.00
10:56 pm 22:56 Clear 80 26.6 70 20.9 71 71 SE 10 17 29.81 1010 10 16 0.00 0.00
11:56 pm 23:56 Clear 82 27.5 69 20.3 65 65 S 12 19 29.83 1010 10 16 0.00 0.00

Powered by AerisWeather